| time (UTC) | temp F | wind direction | speed MPH | gust MPH | rain 1hr in | rain 24hr in | rain mn in | humidity % | barometer mb |
| 20260831204526 | 93 | 292 | 0.0 | 2.0 | 0.00 | 0.00 | 0.00 | 49 | 1014.4 |
| 20260831203038 | 94 | 292 | 0.0 | 2.0 | 0.00 | 0.00 | 0.00 | 49 | 1014.6 |
| 20260831201550 | 94 | 292 | 0.0 | 2.0 | 0.00 | 0.00 | 0.00 | 50 | 1014.7 |
| 20260831200059 | 94 | 292 | 0.0 | 3.0 | 0.00 | 0.00 | 0.00 | 49 | 1014.9 |
| 20260831194511 | 94 | 292 | 0.0 | 2.0 | 0.00 | 0.00 | 0.00 | 49 | 1015.0 |
| 20260831193025 | 94 | 292 | 0.0 | 2.0 | 0.00 | 0.00 | 0.00 | 50 | 1015.1 |
| 20260831191535 | 93 | 292 | 0.0 | 2.0 | 0.00 | 0.00 | 0.00 | 51 | 1015.3 |
| 20260831190047 | 93 | 292 | 0.0 | 2.0 | 0.00 | 0.00 | 0.00 | 52 | 1015.6 |
| 20260831184601 | 93 | 292 | 0.0 | 2.0 | 0.00 | 0.00 | 0.00 | 52 | 1015.7 |
| 20260831183009 | 90 | 307 | 0.0 | 2.0 | 0.00 | 0.00 | 0.00 | 57 | 1016.1 |
| 20260831181522 | 91 | 307 | 0.0 | 2.0 | 0.00 | 0.00 | 0.00 | 57 | 1016.3 |
| 20260831180034 | 90 | 302 | 1.0 | 3.0 | 0.00 | 0.00 | 0.00 | 57 | 1016.5 |
| 20260831174549 | 91 | 300 | 0.0 | 2.0 | 0.00 | 0.00 | 0.00 | 59 | 1016.5 |
| 20260831173105 | 90 | 300 | 0.0 | 2.0 | 0.00 | 0.00 | 0.00 | 56 | 1016.8 |
| 20260831171512 | 91 | 300 | 0.0 | 2.0 | 0.00 | 0.00 | 0.00 | 55 | 1016.9 |
| 20260831170025 | 90 | 299 | 0.0 | 3.0 | 0.00 | 0.00 | 0.00 | 59 | 1017.1 |
| 20260831164540 | 89 | 292 | 0.0 | 2.0 | 0.00 | 0.00 | 0.00 | 61 | 1017.1 |
| 20260831163050 | 89 | 292 | 0.0 | 3.0 | 0.00 | 0.00 | 0.00 | 60 | 1017.2 |
| 20260831161608 | 88 | 292 | 0.0 | 2.0 | 0.00 | 0.00 | 0.00 | 61 | 1017.2 |
| 20260831160016 | 89 | 316 | 0.0 | 2.0 | 0.00 | 0.00 | 0.00 | 60 | 1017.2 |
| 20260831154526 | 88 | 320 | 0.0 | 3.0 | 0.00 | 0.00 | 0.00 | 63 | 1017.2 |
| 20260831153038 | 87 | 294 | 0.0 | 4.0 | 0.00 | 0.00 | 0.00 | 65 | 1017.1 |
| 20260831151548 | 86 | 310 | 0.0 | 2.0 | 0.00 | 0.00 | 0.00 | 68 | 1017.0 |
| 20260831150100 | 85 | 310 | 0.0 | 4.0 | 0.00 | 0.00 | 0.00 | 70 | 1017.0 |
| 20260831144508 | 83 | 310 | 0.0 | 3.0 | 0.00 | 0.00 | 0.00 | 72 | 1016.9 |
| 20260831143018 | 81 | 310 | 0.0 | 2.0 | 0.00 | 0.00 | 0.00 | 78 | 1017.0 |
| 20260831141633 | 80 | 310 | 0.0 | 1.0 | 0.00 | 0.00 | 0.00 | 81 | 1016.9 |
| 20260831140043 | 78 | 310 | 0.0 | 2.0 | 0.00 | 0.00 | 0.00 | 83 | 1017.1 |
| 20260831134556 | 76 | 311 | 0.0 | 2.0 | 0.00 | 0.00 | 0.00 | 88 | 1017.0 |
| 20260831133010 | 74 | 311 | 0.0 | 2.0 | 0.00 | 0.00 | 0.00 | 90 | 1016.9 |
| 20260831131532 | 73 | 311 | 0.0 | 0.0 | 0.00 | 0.00 | 0.00 | 91 | 1016.8 |
| 20260831130034 | 73 | 311 | 0.0 | 0.0 | 0.00 | 0.00 | 0.00 | 91 | 1016.7 |
| 20260831124547 | 73 | 311 | 0.0 | 2.0 | 0.00 | 0.00 | 0.00 | 91 | 1016.7 |
| 20260831123102 | 72 | 311 | 0.0 | 0.0 | 0.00 | 0.00 | 0.00 | 90 | 1016.5 |
| 20260831121514 | 72 | 311 | 0.0 | 0.0 | 0.00 | 0.00 | 0.00 | 90 | 1016.2 |
| 20260831120019 | 72 | 311 | 0.0 | 0.0 | 0.00 | 0.00 | 0.00 | 89 | 1016.1 |
| 20260831114534 | 72 | 311 | 0.0 | 0.0 | 0.00 | 0.00 | 0.00 | 89 | 1016.0 |
| 20260831113046 | 72 | 311 | 0.0 | 0.0 | 0.00 | 0.00 | 0.00 | 89 | 1015.8 |
| 20260831111558 | 73 | 311 | 0.0 | 0.0 | 0.00 | 0.00 | 0.00 | 88 | 1015.7 |
| 20260831110005 | 73 | 311 | 0.0 | 0.0 | 0.00 | 0.00 | 0.00 | 88 | 1015.7 |
| 20260831104518 | 73 | 311 | 0.0 | 0.0 | 0.00 | 0.00 | 0.00 | 87 | 1015.5 |
| 20260831103031 | 73 | 311 | 0.0 | 0.0 | 0.00 | 0.00 | 0.00 | 87 | 1015.3 |
| 20260831101546 | 73 | 311 | 0.0 | 0.0 | 0.00 | 0.00 | 0.00 | 87 | 1015.1 |
| 20260831100058 | 74 | 311 | 0.0 | 0.0 | 0.00 | 0.00 | 0.00 | 86 | 1015.0 |
| 20260831094510 | 74 | 311 | 0.0 | 0.0 | 0.00 | 0.00 | 0.00 | 86 | 1015.0 |
| 20260831093022 | 74 | 311 | 0.0 | 0.0 | 0.00 | 0.00 | 0.00 | 85 | 1015.0 |
| 20260831091536 | 74 | 311 | 0.0 | 0.0 | 0.00 | 0.00 | 0.00 | 85 | 1015.0 |
| 20260831090049 | 75 | 311 | 0.0 | 0.0 | 0.00 | 0.00 | 0.00 | 84 | 1015.0 |
| 20260831084607 | 75 | 311 | 0.0 | 0.0 | 0.00 | 0.00 | 0.00 | 83 | 1014.8 |
| 20260831083018 | 75 | 311 | 0.0 | 0.0 | 0.00 | 0.00 | 0.00 | 83 | 1014.7 |
| 20260831081525 | 76 | 311 | 0.0 | 0.0 | 0.00 | 0.00 | 0.00 | 82 | 1014.6 |
| 20260831080038 | 76 | 311 | 0.0 | 0.0 | 0.00 | 0.00 | 0.00 | 82 | 1014.5 |
| 20260831074551 | 76 | 311 | 0.0 | 0.0 | 0.00 | 0.00 | 0.00 | 81 | 1014.6 |
| 20260831073006 | 77 | 311 | 0.0 | 0.0 | 0.00 | 0.00 | 0.00 | 80 | 1014.6 |
| 20260831071515 | 77 | 311 | 0.0 | 0.0 | 0.00 | 0.00 | 0.00 | 79 | 1014.7 |
| 20260831070029 | 78 | 311 | 0.0 | 0.0 | 0.00 | 0.00 | 0.00 | 78 | 1014.8 |
| 20260831064542 | 78 | 311 | 0.0 | 0.0 | 0.00 | 0.00 | 0.00 | 77 | 1014.9 |
| 20260831063054 | 78 | 311 | 0.0 | 0.0 | 0.00 | 0.00 | 0.00 | 77 | 1014.9 |
| 20260831061505 | 79 | 311 | 0.0 | 0.0 | 0.00 | 0.00 | 0.00 | 75 | 1014.9 |
| 20260831060019 | 79 | 311 | 0.0 | 0.0 | 0.00 | 0.00 | 0.00 | 75 | 1015.0 |
| 20260831054536 | 79 | 311 | 0.0 | 0.0 | 0.00 | 0.00 | 0.00 | 75 | 1015.0 |
| 20260831053047 | 79 | 311 | 0.0 | 0.0 | 0.00 | 0.00 | 0.00 | 74 | 1015.0 |
| 20260831051558 | 79 | 311 | 0.0 | 0.0 | 0.00 | 0.00 | 0.00 | 74 | 1014.9 |
| 20260831050007 | 80 | 311 | 0.0 | 0.0 | 0.00 | 0.00 | 0.00 | 74 | 1014.8 |
| 20260831044519 | 80 | 311 | 0.0 | 0.0 | 0.00 | 0.00 | 0.00 | 74 | 1014.9 |
| 20260831043032 | 80 | 311 | 0.0 | 0.0 | 0.00 | 0.00 | 0.00 | 74 | 1015.0 |
| 20260831041638 | 80 | 311 | 0.0 | 0.0 | 0.00 | 0.00 | 0.00 | 74 | 1015.0 |
| 20260831040059 | 80 | 311 | 0.0 | 0.0 | 0.00 | 0.00 | 0.00 | 74 | 1015.0 |
| 20260831034509 | 81 | 311 | 0.0 | 0.0 | 0.00 | 0.00 | 0.00 | 73 | 1014.9 |
| 20260831033024 | 81 | 311 | 0.0 | 0.0 | 0.00 | 0.00 | 0.00 | 72 | 1014.8 |
| 20260831031536 | 81 | 311 | 0.0 | 0.0 | 0.00 | 0.00 | 0.00 | 72 | 1014.7 |
| 20260831030054 | 82 | 311 | 0.0 | 0.0 | 0.00 | 0.00 | 0.00 | 73 | 1014.6 |
| 20260831024621 | 82 | 311 | 0.0 | 0.0 | 0.00 | 0.00 | 0.00 | 72 | 1014.5 |
| 20260831023012 | 83 | 311 | 0.0 | 0.0 | 0.00 | 0.00 | 0.00 | 71 | 1014.5 |
| 20260831021536 | 83 | 310 | 0.0 | 0.0 | 0.00 | 0.00 | 0.00 | 70 | 1014.3 |
| 20260831020039 | 84 | 311 | 0.0 | 0.0 | 0.00 | 0.00 | 0.00 | 68 | 1014.2 |
| 20260831014552 | 85 | 310 | 0.0 | 0.0 | 0.00 | 0.00 | 0.00 | 67 | 1014.1 |
| 20260831013002 | 85 | 310 | 0.0 | 0.0 | 0.00 | 0.00 | 0.00 | 65 | 1014.0 |
| 20260831011531 | 86 | 310 | 0.0 | 0.0 | 0.00 | 0.00 | 0.00 | 63 | 1013.8 |
| 20260831010027 | 87 | 310 | 0.0 | 0.0 | 0.00 | 0.00 | 0.00 | 62 | 1013.6 |
| 20260831004539 | 87 | 310 | 0.0 | 0.0 | 0.00 | 0.00 | 0.00 | 60 | 1013.5 |
| 20260831003051 | 88 | 310 | 0.0 | 0.0 | 0.00 | 0.00 | 0.00 | 59 | 1013.6 |
| 20260831001502 | 89 | 310 | 0.0 | 0.0 | 0.00 | 0.00 | 0.00 | 58 | 1013.5 |
| 20260831000015 | 89 | 310 | 0.0 | 0.0 | 0.00 | 0.00 | 0.00 | 58 | 1013.4 |
| 20260830234528 | 90 | 310 | 0.0 | 0.0 | 0.00 | 0.00 | 0.00 | 58 | 1013.4 |
| 20260830233041 | 90 | 310 | 0.0 | 0.0 | 0.00 | 0.00 | 0.00 | 58 | 1013.4 |
| 20260830231558 | 90 | 310 | 0.0 | 0.0 | 0.00 | 0.00 | 0.00 | 57 | 1013.3 |
| 20260830230004 | 90 | 310 | 0.0 | 1.0 | 0.00 | 0.00 | 0.00 | 57 | 1013.3 |
| 20260830224521 | 91 | 310 | 0.0 | 0.0 | 0.00 | 0.00 | 0.00 | 55 | 1013.4 |
| 20260830223030 | 91 | 310 | 0.0 | 2.0 | 0.00 | 0.00 | 0.00 | 55 | 1013.3 |
| 20260830221545 | 91 | 310 | 0.0 | 2.0 | 0.00 | 0.00 | 0.00 | 52 | 1013.3 |
| 20260830220053 | 92 | 310 | 0.0 | 1.0 | 0.00 | 0.00 | 0.00 | 51 | 1013.4 |
| 20260830214503 | 92 | 310 | 0.0 | 2.0 | 0.00 | 0.00 | 0.00 | 51 | 1013.4 |
| 20260830213015 | 92 | 310 | 0.0 | 2.0 | 0.00 | 0.00 | 0.00 | 52 | 1013.5 |
| 20260830211529 | 92 | 310 | 0.0 | 2.0 | 0.00 | 0.00 | 0.00 | 52 | 1013.5 |
| 20260830210040 | 93 | 310 | 0.0 | 2.0 | 0.00 | 0.00 | 0.00 | 50 | 1013.7 |